DLH733L ZSPD-EDDF

Flight info

Callsign DLH733L
Flight time N/A
Altitude 34100
Route PIK83D PIKAS G330 PIMOL A593 DALIM W157 BEKDO/K0913S1070 W157 VYK G212 SOTMU/K0919S1040 B339 HUR/K0907S1100 B339 ASILA A575 UPREK W28 LAGEB W66 NUKTI B215 POVEK/K0902S1160 B215 KABDO W119 GOBOK A343 RULAD/K0891F380 M610 ARBOL Z621 GENDI N147 OTBOR/N0487F380 A480 TIMGA/N0484F400 B476 METKA L88 RASAM N199 EDATA M11 REBLO UM11 CRM UL746 ODERO DCT OPT DCT SOKRU DCT ARSIN DCT SUBEN DCT AKINI T161 DEBHI DEBHI1B
Aircraft A359/H-SDE2E3GHIJ3J4J5LM1ORWXY/LB1D1

Departure

Time 2026-05-05 16:44
Airport Shanghai Pudong International Airport (ZSPD)

Arrival

Time N/A
Airport Frankfurt Main Airport (EDDF)
Time Latitude Longitude Altitude Speed Heading
2026-05-05 16:10 31.15159 121.80812 29 ft 0 kts 252°
2026-05-05 16:26 31.15160 121.80813 29 ft 3 kts 252°
2026-05-05 16:26 31.15175 121.80873 28 ft 4 kts 258°
2026-05-05 16:27 31.15177 121.80894 26 ft 2 kts 287°
2026-05-05 16:27 31.15172 121.80905 26 ft 2 kts 331°
2026-05-05 16:27 31.15162 121.80910 27 ft 2 kts 340°
2026-05-05 16:27 31.15156 121.80913 26 ft 0 kts 341°
2026-05-05 16:31 31.15159 121.80912 26 ft 3 kts 341°
2026-05-05 16:31 31.15184 121.80901 27 ft 5 kts 340°
2026-05-05 16:31 31.15239 121.80878 29 ft 11 kts 340°
2026-05-05 16:31 31.15319 121.80883 29 ft 12 kts 31°
2026-05-05 16:32 31.15360 121.80966 29 ft 12 kts 77°
2026-05-05 16:32 31.15328 121.81045 29 ft 11 kts 145°
2026-05-05 16:32 31.15255 121.81082 29 ft 11 kts 160°
2026-05-05 16:32 31.15179 121.81112 29 ft 12 kts 161°
2026-05-05 16:33 31.15101 121.81142 29 ft 12 kts 161°
2026-05-05 16:33 31.15022 121.81173 29 ft 12 kts 161°
2026-05-05 16:33 31.14941 121.81204 29 ft 12 kts 161°
2026-05-05 16:33 31.14860 121.81235 29 ft 12 kts 163°
2026-05-05 16:34 31.14776 121.81265 29 ft 13 kts 163°
2026-05-05 16:34 31.14691 121.81295 29 ft 13 kts 163°
2026-05-05 16:34 31.14604 121.81305 29 ft 12 kts 198°
2026-05-05 16:34 31.14553 121.81231 29 ft 12 kts 245°
2026-05-05 16:35 31.14525 121.81139 29 ft 12 kts 252°
2026-05-05 16:35 31.14498 121.81041 29 ft 13 kts 252°
2026-05-05 16:35 31.14472 121.80943 29 ft 13 kts 252°
2026-05-05 16:35 31.14442 121.80841 29 ft 13 kts 251°
2026-05-05 16:36 31.14412 121.80737 29 ft 14 kts 252°
2026-05-05 16:36 31.14383 121.80630 29 ft 14 kts 252°
2026-05-05 16:36 31.14353 121.80521 29 ft 14 kts 252°
2026-05-05 16:36 31.14322 121.80410 29 ft 15 kts 252°
2026-05-05 16:37 31.14290 121.80297 29 ft 15 kts 252°
2026-05-05 16:37 31.14258 121.80182 29 ft 15 kts 252°
2026-05-05 16:37 31.14225 121.80066 29 ft 15 kts 252°
2026-05-05 16:37 31.14192 121.79947 29 ft 15 kts 252°
2026-05-05 16:38 31.14158 121.79828 29 ft 16 kts 252°
2026-05-05 16:38 31.14145 121.79707 29 ft 15 kts 293°
2026-05-05 16:38 31.14228 121.79643 29 ft 15 kts 339°
2026-05-05 16:38 31.14325 121.79600 29 ft 15 kts 339°
2026-05-05 16:39 31.14428 121.79561 29 ft 16 kts 343°
2026-05-05 16:39 31.14532 121.79525 29 ft 16 kts 343°
2026-05-05 16:39 31.14639 121.79486 29 ft 16 kts 342°
2026-05-05 16:39 31.14747 121.79446 29 ft 17 kts 342°
2026-05-05 16:40 31.14859 121.79405 29 ft 17 kts 342°
2026-05-05 16:40 31.14972 121.79363 29 ft 17 kts 342°
2026-05-05 16:40 31.15087 121.79321 29 ft 18 kts 342°
2026-05-05 16:40 31.15205 121.79277 29 ft 18 kts 342°
2026-05-05 16:41 31.15324 121.79232 29 ft 18 kts 341°
2026-05-05 16:41 31.15445 121.79183 29 ft 18 kts 341°
2026-05-05 16:41 31.15568 121.79135 29 ft 19 kts 342°
2026-05-05 16:41 31.15692 121.79087 29 ft 19 kts 342°
2026-05-05 16:42 31.15817 121.79040 29 ft 19 kts 342°
2026-05-05 16:42 31.15943 121.78992 29 ft 19 kts 343°
2026-05-05 16:42 31.16065 121.78948 29 ft 16 kts 342°
2026-05-05 16:42 31.16161 121.78891 29 ft 15 kts 301°
2026-05-05 16:43 31.16150 121.78778 29 ft 14 kts 254°
2026-05-05 16:43 31.16118 121.78668 29 ft 14 kts 239°
2026-05-05 16:43 31.16056 121.78632 28 ft 5 kts 177°
2026-05-05 16:43 31.16042 121.78637 28 ft 0 kts 166°
2026-05-05 16:44 31.15862 121.78701 29 ft 58 kts 161°
2026-05-05 16:44 31.15283 121.78921 27 ft 115 kts 162°
2026-05-05 16:44 31.14356 121.79271 28 ft 163 kts 162°
2026-05-05 16:44 31.13230 121.79686 614 ft 158 kts 163°
2026-05-05 16:45 31.12188 121.80077 1149 ft 162 kts 163°
2026-05-05 16:45 31.11035 121.80481 1381 ft 180 kts 166°
2026-05-05 16:45 31.09781 121.80893 1547 ft 200 kts 166°
2026-05-05 16:45 31.08365 121.81360 1708 ft 222 kts 166°
2026-05-05 16:46 31.06819 121.81877 2019 ft 238 kts 165°
2026-05-05 16:46 31.05197 121.82424 2482 ft 247 kts 165°
2026-05-05 16:46 31.03523 121.82991 2995 ft 253 kts 165°
2026-05-05 16:46 31.01816 121.83568 3557 ft 257 kts 165°
2026-05-05 16:47 31.00087 121.84158 4101 ft 261 kts 164°
2026-05-05 16:47 30.98362 121.84881 4611 ft 267 kts 160°
2026-05-05 16:47 30.96623 121.85693 5134 ft 271 kts 159°
2026-05-05 16:47 30.94854 121.86529 5651 ft 276 kts 159°
2026-05-05 16:48 30.93058 121.87376 6209 ft 281 kts 159°
2026-05-05 16:48 30.91207 121.88166 6751 ft 285 kts 163°
2026-05-05 16:48 30.89330 121.88827 7351 ft 287 kts 164°
2026-05-05 16:48 30.87407 121.89500 7979 ft 289 kts 164°
2026-05-05 16:49 30.85477 121.90189 8620 ft 291 kts 164°
2026-05-05 16:49 30.83681 121.90877 9210 ft 294 kts 159°
2026-05-05 16:49 30.81945 121.92149 9792 ft 299 kts 134°
2026-05-05 16:49 30.80844 121.94190 10276 ft 304 kts 108°
2026-05-05 16:50 30.80640 121.96669 10483 ft 318 kts 79°
2026-05-05 16:50 30.81436 121.99104 10722 ft 329 kts 60°
2026-05-05 16:50 30.82368 122.01613 10931 ft 346 kts 69°
2026-05-05 16:50 30.83169 122.04320 11160 ft 361 kts 71°
2026-05-05 16:51 30.83966 122.07148 11393 ft 375 kts 71°
2026-05-05 16:51 30.84785 122.10083 11596 ft 387 kts 71°
2026-05-05 16:51 30.85888 122.12980 11859 ft 395 kts 55°
2026-05-05 16:51 30.87742 122.15288 12286 ft 397 kts 35°
2026-05-05 16:52 30.90192 122.16730 12729 ft 397 kts 14°
2026-05-05 16:52 30.92926 122.17107 13178 ft 397 kts 354°
2026-05-05 16:52 30.95600 122.16375 13612 ft 397 kts 334°
2026-05-05 16:52 30.97896 122.14623 14047 ft 396 kts 315°
2026-05-05 16:53 30.99623 122.12142 14492 ft 395 kts 305°
2026-05-05 16:53 31.01600 122.09904 14904 ft 401 kts 325°
2026-05-05 16:53 31.04044 122.08308 15380 ft 404 kts 332°
2026-05-05 16:53 31.06651 122.07060 15822 ft 408 kts 339°
2026-05-05 16:54 31.09287 122.05834 16255 ft 408 kts 330°
2026-05-05 16:54 31.11642 122.04010 16733 ft 406 kts 319°
2026-05-05 16:54 31.13783 122.01854 17199 ft 407 kts 316°
2026-05-05 16:54 31.15887 121.99632 17690 ft 409 kts 315°
2026-05-05 16:55 31.17993 121.97391 18160 ft 411 kts 315°
2026-05-05 16:55 31.20116 121.95125 18606 ft 413 kts 315°
2026-05-05 16:55 31.22208 121.92890 19014 ft 415 kts 315°
2026-05-05 16:55 31.24346 121.90605 19434 ft 417 kts 315°
2026-05-05 16:56 31.26486 121.88314 19855 ft 418 kts 315°
2026-05-05 16:56 31.28636 121.86012 20272 ft 420 kts 314°
2026-05-05 16:56 31.30800 121.83693 20684 ft 423 kts 314°
2026-05-05 16:56 31.32973 121.81363 21115 ft 424 kts 314°
2026-05-05 16:57 31.35157 121.79020 21545 ft 427 kts 314°
2026-05-05 16:57 31.37347 121.76668 21967 ft 429 kts 314°
2026-05-05 16:57 31.39550 121.74301 22401 ft 431 kts 314°
2026-05-05 16:57 31.41770 121.71914 22837 ft 434 kts 314°
2026-05-05 16:58 31.44000 121.69515 23270 ft 436 kts 314°
2026-05-05 16:58 31.46244 121.67099 23674 ft 439 kts 314°
2026-05-05 16:58 31.48466 121.64704 24037 ft 441 kts 314°
2026-05-05 16:58 31.50732 121.62261 24424 ft 443 kts 314°
2026-05-05 16:59 31.53003 121.59812 24824 ft 444 kts 313°
2026-05-05 16:59 31.55284 121.57350 25208 ft 446 kts 313°
2026-05-05 16:59 31.57566 121.54885 25582 ft 448 kts 313°
2026-05-05 16:59 31.59862 121.52402 25963 ft 449 kts 313°
2026-05-05 17:00 31.62163 121.49913 26353 ft 450 kts 313°
2026-05-05 17:00 31.64469 121.47416 26716 ft 452 kts 312°
2026-05-05 17:00 31.66788 121.44904 27082 ft 453 kts 312°
2026-05-05 17:00 31.69106 121.42390 27430 ft 455 kts 311°
2026-05-05 17:01 31.71434 121.39862 27807 ft 456 kts 311°
2026-05-05 17:01 31.73767 121.37330 28153 ft 457 kts 311°
2026-05-05 17:01 31.76111 121.34784 28496 ft 459 kts 311°
2026-05-05 17:01 31.78423 121.32271 28803 ft 460 kts 311°
2026-05-05 17:02 31.80779 121.29707 29098 ft 462 kts 311°
2026-05-05 17:02 31.83133 121.27145 29574 ft 459 kts 310°
2026-05-05 17:02 31.85472 121.24600 30087 ft 456 kts 310°
2026-05-05 17:02 31.87799 121.22064 30437 ft 455 kts 310°
2026-05-05 17:03 31.90118 121.19532 30726 ft 455 kts 310°
2026-05-05 17:03 31.92443 121.16993 31010 ft 455 kts 310°
2026-05-05 17:03 31.94766 121.14454 31294 ft 455 kts 311°
2026-05-05 17:03 31.97086 121.11916 31585 ft 455 kts 311°
2026-05-05 17:04 31.99406 121.09377 31867 ft 454 kts 311°
2026-05-05 17:04 32.01689 121.06877 32152 ft 454 kts 311°
2026-05-05 17:04 32.04027 121.04316 32440 ft 453 kts 311°
2026-05-05 17:04 32.06289 121.01799 32701 ft 451 kts 309°
2026-05-05 17:05 32.08349 120.99043 32945 ft 445 kts 302°
2026-05-05 17:05 32.10012 120.95995 33209 ft 439 kts 292°
2026-05-05 17:05 32.11184 120.92699 33475 ft 435 kts 287°
2026-05-05 17:05 32.12184 120.89332 33701 ft 434 kts 286°
2026-05-05 17:06 32.13145 120.85963 33948 ft 433 kts 285°
2026-05-05 17:06 32.14096 120.82579 34072 ft 435 kts 285°
2026-05-05 17:06 32.15990 120.75733 34079 ft 440 kts 284°
2026-05-05 17:07 32.17112 120.68681 34082 ft 437 kts 276°
2026-05-05 17:07 32.17731 120.61530 34076 ft 438 kts 274°
2026-05-05 17:08 32.18286 120.54359 34073 ft 439 kts 275°
2026-05-05 17:08 32.18855 120.47223 34070 ft 439 kts 275°
2026-05-05 17:09 32.19443 120.40030 34070 ft 440 kts 275°
2026-05-05 17:09 32.20034 120.32818 34063 ft 441 kts 275°
2026-05-05 17:10 32.20625 120.25604 34062 ft 442 kts 275°
2026-05-05 17:10 32.21214 120.18418 34058 ft 442 kts 275°
2026-05-05 17:11 32.21803 120.11164 34058 ft 443 kts 275°
2026-05-05 17:11 32.22386 120.03920 34049 ft 443 kts 275°
2026-05-05 17:12 32.22968 119.96652 34053 ft 444 kts 275°
2026-05-05 17:12 32.23546 119.89385 34046 ft 445 kts 276°
2026-05-05 17:13 32.24339 119.83383 34046 ft 446 kts 284°
2026-05-05 17:13 32.27282 119.75623 34040 ft 450 kts 302°
2026-05-05 17:14 32.31583 119.70203 34043 ft 457 kts 319°
2026-05-05 17:14 32.35832 119.66437 34034 ft 460 kts 321°
2026-05-05 17:15 32.41059 119.62041 34036 ft 460 kts 321°
2026-05-05 17:15 32.46283 119.57639 34031 ft 461 kts 321°
2026-05-05 17:16 32.51457 119.53224 34034 ft 461 kts 321°
2026-05-05 17:16 32.56633 119.48737 34027 ft 461 kts 321°
2026-05-05 17:17 32.61812 119.44239 34032 ft 461 kts 321°
2026-05-05 17:17 32.66984 119.39752 34025 ft 461 kts 322°
2026-05-05 17:18 32.72163 119.35257 34025 ft 461 kts 322°
2026-05-05 17:18 32.77308 119.30786 34019 ft 461 kts 322°
2026-05-05 17:19 32.82486 119.26280 34028 ft 461 kts 322°
2026-05-05 17:19 32.87667 119.21764 34018 ft 461 kts 322°
2026-05-05 17:20 32.92834 119.17253 34024 ft 460 kts 322°
2026-05-05 17:20 32.98012 119.12752 34015 ft 460 kts 323°
2026-05-05 17:21 33.03174 119.08316 34021 ft 460 kts 323°
2026-05-05 17:22 33.10969 119.01608 34019 ft 460 kts 323°
2026-05-05 17:22 33.16152 118.97129 34015 ft 459 kts 323°
2026-05-05 17:23 33.21323 118.92654 34013 ft 459 kts 323°
2026-05-05 17:23 33.26480 118.88159 34015 ft 459 kts 323°
2026-05-05 17:24 33.31630 118.83652 34012 ft 458 kts 323°
2026-05-05 17:24 33.36761 118.79202 34014 ft 458 kts 323°
2026-05-05 17:25 33.41928 118.74726 34010 ft 458 kts 323°
2026-05-05 17:25 33.47085 118.70253 34009 ft 457 kts 323°
2026-05-05 17:26 33.52239 118.65784 34008 ft 457 kts 324°
2026-05-05 17:26 33.57388 118.61320 34006 ft 457 kts 324°
2026-05-05 17:27 33.62487 118.56890 34002 ft 456 kts 324°
2026-05-05 17:27 33.67638 118.52409 34004 ft 456 kts 324°
2026-05-05 17:28 33.72765 118.47940 34003 ft 455 kts 324°
2026-05-05 17:28 33.77893 118.43464 33997 ft 455 kts 324°
2026-05-05 17:29 33.83013 118.38989 33995 ft 454 kts 324°
2026-05-05 17:29 33.88093 118.34541 34000 ft 454 kts 324°
2026-05-05 17:30 33.93198 118.30065 33995 ft 453 kts 324°
2026-05-05 17:30 33.98292 118.25594 33996 ft 453 kts 324°
2026-05-05 17:31 34.03412 118.21132 33997 ft 453 kts 324°
2026-05-05 17:31 34.08526 118.16684 33991 ft 453 kts 324°
2026-05-05 17:32 34.13643 118.12237 33993 ft 453 kts 324°
2026-05-05 17:32 34.18720 118.07811 33991 ft 453 kts 324°
2026-05-05 17:32 34.21256 118.05589 33888 ft 447 kts 326°
2026-05-05 17:33 34.23753 118.03402 33985 ft 440 kts 327°
2026-05-05 17:33 34.28967 117.99704 33991 ft 432 kts 338°
2026-05-05 17:34 34.34652 117.97358 33990 ft 432 kts 343°
2026-05-05 17:34 34.40427 117.95293 33984 ft 433 kts 343°
2026-05-05 17:35 34.46226 117.93259 33987 ft 433 kts 343°
2026-05-05 17:35 34.52020 117.91204 33988 ft 434 kts 343°
2026-05-05 17:36 34.57808 117.89133 33985 ft 434 kts 343°
2026-05-05 17:36 34.63599 117.87054 33988 ft 434 kts 343°
2026-05-05 17:37 34.69358 117.84983 33986 ft 434 kts 343°
2026-05-05 17:37 34.75157 117.82896 33988 ft 434 kts 343°
2026-05-05 17:38 34.80951 117.80809 33987 ft 434 kts 342°
2026-05-05 17:38 34.86749 117.78709 33980 ft 434 kts 342°
2026-05-05 17:39 34.92543 117.76583 33985 ft 434 kts 342°
2026-05-05 17:39 34.98339 117.74454 33985 ft 435 kts 342°
2026-05-05 17:40 35.04098 117.72342 33984 ft 435 kts 342°
2026-05-05 17:40 35.09892 117.70222 33977 ft 435 kts 342°
2026-05-05 17:41 35.15688 117.68095 33981 ft 435 kts 342°
2026-05-05 17:41 35.21487 117.65962 33974 ft 435 kts 342°
2026-05-05 17:42 35.27290 117.63827 33974 ft 436 kts 342°
2026-05-05 17:42 35.33097 117.61687 33969 ft 436 kts 341°
2026-05-05 17:43 35.38910 117.59542 33971 ft 436 kts 341°
2026-05-05 17:43 35.44724 117.57394 33964 ft 436 kts 341°
2026-05-05 17:44 35.50502 117.55256 33963 ft 437 kts 341°
2026-05-05 17:44 35.56330 117.53095 33957 ft 437 kts 341°
2026-05-05 17:45 35.62159 117.50932 33954 ft 438 kts 341°
2026-05-05 17:45 35.68003 117.48759 33954 ft 438 kts 341°
2026-05-05 17:46 35.73840 117.46586 33947 ft 438 kts 341°
2026-05-05 17:46 35.79651 117.44418 33946 ft 438 kts 341°
2026-05-05 17:47 35.85496 117.42236 33945 ft 439 kts 341°
2026-05-05 17:47 35.91343 117.40049 33940 ft 439 kts 341°
2026-05-05 17:48 35.97195 117.37857 33942 ft 439 kts 341°
2026-05-05 17:48 36.03014 117.35676 33941 ft 440 kts 341°
2026-05-05 17:49 36.08891 117.33507 33935 ft 440 kts 341°
2026-05-05 17:49 36.14771 117.31343 33938 ft 441 kts 341°
2026-05-05 17:50 36.20654 117.29167 33933 ft 441 kts 341°
2026-05-05 17:50 36.26539 117.26983 33925 ft 441 kts 341°
2026-05-05 17:51 36.32428 117.24794 33923 ft 442 kts 340°
2026-05-05 17:51 36.38284 117.22614 33923 ft 442 kts 340°
2026-05-05 17:52 36.44072 117.20097 33913 ft 440 kts 336°
2026-05-05 17:52 36.49746 117.17205 33903 ft 440 kts 335°
2026-05-05 17:53 36.55408 117.14252 33902 ft 441 kts 335°
2026-05-05 17:53 36.61032 117.11310 33897 ft 441 kts 335°
2026-05-05 17:54 36.66700 117.08349 33886 ft 441 kts 335°
2026-05-05 17:54 36.72363 117.05388 33880 ft 441 kts 335°
2026-05-05 17:55 36.78022 117.02427 33873 ft 441 kts 334°
2026-05-05 17:55 36.83687 116.99458 33866 ft 441 kts 334°
2026-05-05 17:56 36.89348 116.96486 33861 ft 441 kts 334°
2026-05-05 17:56 36.94972 116.93528 33862 ft 441 kts 334°
2026-05-05 17:57 37.00637 116.90545 33855 ft 441 kts 334°
2026-05-05 17:57 37.06306 116.87554 33849 ft 442 kts 334°
2026-05-05 17:58 37.11975 116.84559 33852 ft 442 kts 334°
2026-05-05 17:58 37.17641 116.81559 33850 ft 442 kts 334°
2026-05-05 17:59 37.23405 116.78814 33846 ft 445 kts 338°
2026-05-05 17:59 37.29326 116.76510 33842 ft 445 kts 339°
2026-05-05 18:00 37.35263 116.74274 33843 ft 446 kts 339°
2026-05-05 18:00 37.41177 116.72050 33837 ft 446 kts 339°
2026-05-05 18:01 37.47134 116.69798 33839 ft 446 kts 339°
2026-05-05 18:01 37.53077 116.67543 33839 ft 446 kts 339°
2026-05-05 18:02 37.59029 116.65278 33835 ft 447 kts 339°
2026-05-05 18:02 37.64982 116.63010 33832 ft 447 kts 339°
2026-05-05 18:03 37.70900 116.60753 33832 ft 447 kts 339°
2026-05-05 18:03 37.75862 116.58857 33830 ft 447 kts 339°
2026-05-05 18:04 37.81816 116.56579 33824 ft 447 kts 339°
2026-05-05 18:04 37.87761 116.54300 33821 ft 447 kts 339°
2026-05-05 18:05 37.93722 116.52003 33819 ft 446 kts 338°
2026-05-05 18:05 37.99290 116.48725 33817 ft 438 kts 323°
2026-05-05 18:06 38.04285 116.44390 33815 ft 437 kts 321°
2026-05-05 18:06 38.09211 116.39859 33810 ft 437 kts 321°
2026-05-05 18:07 38.14125 116.35307 33807 ft 437 kts 321°
2026-05-05 18:07 38.19092 116.30853 33807 ft 439 kts 325°
2026-05-05 18:08 38.24711 116.27703 33803 ft 447 kts 340°
2026-05-05 18:08 38.30966 116.26771 33798 ft 462 kts 356°
2026-05-05 18:09 38.37380 116.28174 33800 ft 474 kts
2026-05-05 18:09 38.43744 116.30375 33801 ft 476 kts
2026-05-05 18:10 38.50121 116.32683 33797 ft 476 kts
2026-05-05 18:10 38.56497 116.34936 33795 ft 475 kts
2026-05-05 18:11 38.62888 116.37154 33794 ft 475 kts
2026-05-05 18:11 38.69262 116.39369 33802 ft 475 kts
2026-05-05 18:12 38.75633 116.41609 33799 ft 475 kts
2026-05-05 18:12 38.82003 116.43857 33801 ft 474 kts
2026-05-05 18:13 38.88325 116.46091 33800 ft 474 kts
2026-05-05 18:13 38.94683 116.48341 33794 ft 474 kts
2026-05-05 18:14 39.01049 116.50598 33795 ft 474 kts
2026-05-05 18:14 39.07404 116.52854 33799 ft 474 kts
2026-05-05 18:15 39.13763 116.55117 33792 ft 474 kts
2026-05-05 18:15 39.20123 116.57384 33793 ft 474 kts
2026-05-05 18:16 39.26381 116.60064 33797 ft 480 kts 12°
2026-05-05 18:16 39.32632 116.63129 33792 ft 481 kts 12°
2026-05-05 18:17 39.38896 116.66159 33790 ft 480 kts 12°
2026-05-05 18:17 39.45175 116.69117 33791 ft 480 kts 11°
2026-05-05 18:18 39.51458 116.72051 33790 ft 480 kts 11°
2026-05-05 18:18 39.57743 116.74989 33793 ft 480 kts 11°
2026-05-05 18:19 39.64035 116.77941 33792 ft 481 kts 11°
2026-05-05 18:19 39.70331 116.80902 33792 ft 481 kts 11°
2026-05-05 18:20 39.76649 116.83701 33792 ft 474 kts
2026-05-05 18:20 39.82995 116.84609 33797 ft 454 kts 349°
2026-05-05 18:21 39.89221 116.83693 33792 ft 448 kts 344°
2026-05-05 18:21 39.95373 116.82450 33790 ft 447 kts 343°
2026-05-05 18:22 40.01530 116.81170 33795 ft 448 kts 343°
2026-05-05 18:22 40.07687 116.79918 33794 ft 448 kts 343°
2026-05-05 18:23 40.13848 116.78682 33794 ft 448 kts 343°
2026-05-05 18:23 40.19971 116.77455 33790 ft 448 kts 343°
2026-05-05 18:24 40.26140 116.76217 33795 ft 448 kts 343°
2026-05-05 18:24 40.32308 116.74903 33796 ft 444 kts 340°
2026-05-05 18:25 40.38187 116.72767 33796 ft 440 kts 336°
2026-05-05 18:25 40.44044 116.70418 33799 ft 439 kts 335°
2026-05-05 18:26 40.49879 116.68038 33804 ft 439 kts 335°
2026-05-05 18:26 40.55717 116.65655 33805 ft 440 kts 335°
2026-05-05 18:27 40.61578 116.63276 33806 ft 439 kts 335°
2026-05-05 18:27 40.67371 116.60923 33809 ft 438 kts 335°
2026-05-05 18:28 40.76132 116.57411 33812 ft 441 kts 338°
2026-05-05 18:28 40.82295 116.56242 33813 ft 451 kts 346°
2026-05-05 18:29 40.88584 116.55603 33810 ft 453 kts 347°
2026-05-05 18:29 40.94877 116.55052 33812 ft 452 kts 347°
2026-05-05 18:30 41.01118 116.54493 33812 ft 452 kts 347°
2026-05-05 18:30 41.07388 116.53922 33822 ft 452 kts 346°
2026-05-05 18:31 41.13659 116.53336 33824 ft 451 kts 346°
2026-05-05 18:31 41.19909 116.52695 33812 ft 447 kts 343°
2026-05-05 18:32 41.25799 116.50693 33816 ft 429 kts 329°
2026-05-05 18:32 41.31019 116.47061 33817 ft 422 kts 323°
2026-05-05 18:33 41.36042 116.43102 33817 ft 421 kts 322°
2026-05-05 18:33 41.41070 116.39073 33822 ft 421 kts 322°
2026-05-05 18:34 41.46099 116.35059 33823 ft 421 kts 322°
2026-05-05 18:34 41.51135 116.31054 33826 ft 421 kts 322°
2026-05-05 18:35 41.56173 116.27048 33822 ft 421 kts 322°
2026-05-05 18:35 41.61207 116.23038 33828 ft 421 kts 322°
2026-05-05 18:36 41.66234 116.19022 33826 ft 420 kts 322°
2026-05-05 18:36 41.71257 116.15001 33833 ft 420 kts 322°
2026-05-05 18:37 41.76267 116.10985 33840 ft 419 kts 322°
2026-05-05 18:37 41.81237 116.06992 33849 ft 419 kts 322°
2026-05-05 18:38 41.86240 116.02967 33852 ft 419 kts 322°
2026-05-05 18:38 41.91228 115.98917 33859 ft 417 kts 320°
2026-05-05 18:39 41.95608 115.94012 33865 ft 405 kts 308°
2026-05-05 18:39 41.98844 115.87915 33877 ft 399 kts 297°
2026-05-05 18:40 42.01552 115.81387 33880 ft 399 kts 296°
2026-05-05 18:40 42.04160 115.74855 33883 ft 399 kts 296°
2026-05-05 18:41 42.06791 115.68283 33888 ft 399 kts 296°
2026-05-05 18:41 42.09434 115.61711 33894 ft 399 kts 296°
2026-05-05 18:42 42.12083 115.55128 33902 ft 399 kts 296°
2026-05-05 18:42 42.14723 115.48555 33904 ft 399 kts 296°
2026-05-05 18:43 42.17340 115.42022 33905 ft 398 kts 296°
2026-05-05 18:43 42.19967 115.35447 33906 ft 398 kts 296°
2026-05-05 18:44 42.22181 115.28637 33912 ft 396 kts 286°
2026-05-05 18:44 42.23105 115.21439 33915 ft 397 kts 274°
2026-05-05 18:45 42.22845 115.13971 33916 ft 400 kts 269°
2026-05-05 18:45 42.22308 115.06481 33917 ft 401 kts 268°
2026-05-05 18:46 42.21746 114.98992 33917 ft 401 kts 268°
2026-05-05 18:46 42.21206 114.91555 33924 ft 400 kts 268°
2026-05-05 18:47 42.20672 114.84072 33925 ft 400 kts 268°
2026-05-05 18:47 42.20137 114.76596 33927 ft 400 kts 268°
2026-05-05 18:48 42.19596 114.69126 33928 ft 400 kts 268°
2026-05-05 18:48 42.19049 114.61656 33935 ft 400 kts 268°
2026-05-05 18:49 42.18500 114.54234 33939 ft 400 kts 268°
2026-05-05 18:49 42.17944 114.46768 33941 ft 400 kts 268°
2026-05-05 18:50 42.17383 114.39301 33941 ft 400 kts 268°
2026-05-05 18:50 42.16817 114.31835 33943 ft 400 kts 267°
2026-05-05 18:51 42.16247 114.24377 33945 ft 400 kts 267°
2026-05-05 18:51 42.15670 114.16913 33954 ft 400 kts 267°
2026-05-05 18:52 42.15090 114.09448 33952 ft 400 kts 267°
2026-05-05 18:52 42.14603 114.03231 33954 ft 401 kts 267°
2026-05-05 18:53 42.13916 113.94550 33960 ft 401 kts 267°
2026-05-05 18:53 42.13419 113.88317 33965 ft 401 kts 267°
2026-05-05 18:54 42.12818 113.80842 33967 ft 401 kts 267°
2026-05-05 18:54 42.12214 113.73364 33966 ft 402 kts 266°
2026-05-05 18:55 42.11603 113.65884 33971 ft 402 kts 266°
2026-05-05 18:55 42.10985 113.58387 33967 ft 402 kts 266°
2026-05-05 18:56 42.10333 113.50898 33970 ft 403 kts 264°
2026-05-05 18:56 42.09123 113.43486 33970 ft 406 kts 261°
2026-05-05 18:57 42.07749 113.36114 33968 ft 407 kts 260°
2026-05-05 18:57 42.06343 113.28739 33973 ft 407 kts 260°
2026-05-05 18:58 42.04938 113.21361 33974 ft 407 kts 260°
2026-05-05 18:58 42.03533 113.13977 33973 ft 407 kts 260°
2026-05-05 18:59 42.02134 113.06640 33975 ft 407 kts 260°
2026-05-05 18:59 42.00725 112.99256 33977 ft 408 kts 260°
2026-05-05 19:00 41.99310 112.91878 33982 ft 408 kts 260°
2026-05-05 19:00 41.97888 112.84495 33976 ft 408 kts 259°
2026-05-05 19:01 41.96461 112.77115 33981 ft 408 kts 259°
2026-05-05 19:01 41.95132 112.69715 33987 ft 406 kts 264°
2026-05-05 19:02 41.94885 112.62195 33987 ft 402 kts 276°
2026-05-05 19:02 41.95962 112.54924 33990 ft 402 kts 283°
2026-05-05 19:03 41.97433 112.47673 33992 ft 402 kts 284°
2026-05-05 19:03 41.98929 112.40485 33996 ft 402 kts 284°
2026-05-05 19:04 42.00412 112.33243 33998 ft 402 kts 284°
2026-05-05 19:04 42.01874 112.25989 33998 ft 401 kts 284°
2026-05-05 19:05 42.03330 112.18726 33998 ft 401 kts 284°
2026-05-05 19:05 42.04775 112.11488 34001 ft 401 kts 284°
2026-05-05 19:06 42.06209 112.04290 34000 ft 400 kts 283°
2026-05-05 19:06 42.07646 111.97050 34001 ft 400 kts 283°
2026-05-05 19:07 42.09079 111.89807 33999 ft 400 kts 283°
2026-05-05 19:07 42.10504 111.82573 34005 ft 399 kts 283°
2026-05-05 19:08 42.11916 111.75378 34000 ft 399 kts 283°
2026-05-05 19:08 42.13332 111.68138 34005 ft 399 kts 283°
2026-05-05 19:09 42.14742 111.60905 34004 ft 399 kts 283°
2026-05-05 19:09 42.16148 111.53661 34003 ft 399 kts 283°
2026-05-05 19:10 42.17537 111.46479 34003 ft 398 kts 283°
2026-05-05 19:10 42.18931 111.39243 34007 ft 398 kts 283°
2026-05-05 19:11 42.20078 111.31948 34010 ft 398 kts 276°
2026-05-05 19:11 42.20019 111.24491 34008 ft 399 kts 266°
2026-05-05 19:12 42.19295 111.17046 34010 ft 400 kts 264°
2026-05-05 19:12 42.18472 111.09647 34013 ft 401 kts 264°
2026-05-05 19:13 42.17645 111.02209 34014 ft 401 kts 264°
2026-05-05 19:13 42.16831 110.94770 34018 ft 401 kts 264°
2026-05-05 19:14 42.16024 110.87372 34013 ft 401 kts 264°
2026-05-05 19:14 42.15208 110.79923 34015 ft 402 kts 264°
2026-05-05 19:15 42.14386 110.72479 34017 ft 402 kts 264°
2026-05-05 19:15 42.13557 110.65031 34019 ft 402 kts 264°
2026-05-05 19:16 42.12725 110.57589 34020 ft 402 kts 264°
2026-05-05 19:16 42.11888 110.50152 34018 ft 402 kts 264°
2026-05-05 19:17 42.11045 110.42701 34018 ft 402 kts 264°
2026-05-05 19:17 42.10198 110.35264 34025 ft 402 kts 264°
2026-05-05 19:18 42.09351 110.27867 34025 ft 402 kts 264°
2026-05-05 19:18 42.08493 110.20427 34026 ft 401 kts 264°
2026-05-05 19:19 42.07632 110.12991 34028 ft 401 kts 264°
2026-05-05 19:19 42.06766 110.05564 34031 ft 401 kts 264°
2026-05-05 19:20 42.05901 109.98187 34039 ft 401 kts 264°
2026-05-05 19:20 42.05025 109.90761 34038 ft 401 kts 264°
2026-05-05 19:21 42.04161 109.83469 34037 ft 401 kts 263°
2026-05-05 19:21 42.03276 109.76049 34038 ft 401 kts 263°
2026-05-05 19:22 42.02389 109.68658 34042 ft 400 kts 263°
2026-05-05 19:22 42.01503 109.61311 34041 ft 400 kts 263°
2026-05-05 19:23 42.00608 109.53936 34044 ft 399 kts 263°
2026-05-05 19:23 41.99708 109.46556 34045 ft 399 kts 263°
2026-05-05 19:24 41.98804 109.39177 34044 ft 400 kts 263°
2026-05-05 19:24 41.97895 109.31804 34047 ft 400 kts 263°
2026-05-05 19:25 41.96980 109.24424 34045 ft 400 kts 263°
2026-05-05 19:25 41.96067 109.17099 34047 ft 400 kts 263°
2026-05-05 19:26 41.95141 109.09713 34046 ft 400 kts 263°
2026-05-05 19:26 41.94211 109.02341 34043 ft 400 kts 263°
2026-05-05 19:27 41.93279 108.94976 34043 ft 400 kts 263°
2026-05-05 19:27 41.92340 108.87599 34048 ft 400 kts 263°
2026-05-05 19:28 41.91396 108.80235 34046 ft 400 kts 263°
2026-05-05 19:28 41.90446 108.72858 34042 ft 400 kts 262°
2026-05-05 19:29 41.89493 108.65491 34044 ft 401 kts 262°
2026-05-05 19:29 41.88540 108.58166 34050 ft 401 kts 262°
2026-05-05 19:30 41.87575 108.50783 34046 ft 401 kts 262°
2026-05-05 19:30 41.86604 108.43395 34055 ft 401 kts 262°
2026-05-05 19:31 41.85631 108.36027 34048 ft 401 kts 262°
2026-05-05 19:31 41.84650 108.28638 34052 ft 402 kts 262°
2026-05-05 19:32 41.83665 108.21264 34057 ft 402 kts 262°
2026-05-05 19:32 41.82675 108.13880 34057 ft 402 kts 262°
2026-05-05 19:33 41.81680 108.06497 34061 ft 403 kts 262°
2026-05-05 19:33 41.80685 107.99149 34062 ft 403 kts 262°
2026-05-05 19:34 41.79677 107.91757 34064 ft 403 kts 262°
2026-05-05 19:35 41.78155 107.80652 34062 ft 404 kts 262°
2026-05-05 19:35 41.77134 107.73249 34066 ft 404 kts 262°
2026-05-05 19:36 41.76115 107.65899 34066 ft 404 kts 262°
2026-05-05 19:36 41.75084 107.58497 34070 ft 404 kts 261°
2026-05-05 19:37 41.74048 107.51091 34069 ft 405 kts 261°
2026-05-05 19:37 41.73006 107.43685 34070 ft 405 kts 261°
2026-05-05 19:38 41.71958 107.36273 34069 ft 405 kts 261°
2026-05-05 19:38 41.70904 107.28850 34070 ft 406 kts 261°
2026-05-05 19:39 41.69845 107.21431 34083 ft 406 kts 261°
2026-05-05 19:39 41.68787 107.14052 34071 ft 406 kts 261°
2026-05-05 19:40 41.67717 107.06620 34081 ft 407 kts 261°
2026-05-05 19:40 41.66641 106.99190 34084 ft 407 kts 261°
2026-05-05 19:41 41.65742 106.93009 34086 ft 407 kts 261°
2026-05-05 19:41 41.64656 106.85571 34084 ft 408 kts 261°
2026-05-05 19:42 41.63563 106.78126 34087 ft 408 kts 261°
2026-05-05 19:42 41.62463 106.70666 34086 ft 408 kts 260°
2026-05-05 19:43 41.61360 106.63225 34088 ft 409 kts 260°
2026-05-05 19:43 41.60257 106.55813 34089 ft 409 kts 260°
2026-05-05 19:44 41.59140 106.48341 34082 ft 409 kts 260°
2026-05-05 19:44 41.58017 106.40871 34079 ft 410 kts 260°
2026-05-05 19:45 41.56892 106.33413 34083 ft 410 kts 260°
2026-05-05 19:45 41.55766 106.25988 34077 ft 410 kts 259°
2026-05-05 19:46 41.54629 106.18521 34077 ft 410 kts 259°
2026-05-05 19:46 41.53424 106.11054 34076 ft 411 kts 256°
2026-05-05 19:47 41.51508 106.03840 34078 ft 413 kts 251°
2026-05-05 19:47 41.49377 105.96710 34074 ft 414 kts 251°
2026-05-05 19:48 41.47206 105.89588 34078 ft 414 kts 250°
2026-05-05 19:48 41.45049 105.82502 34082 ft 415 kts 250°
2026-05-05 19:49 41.42882 105.75373 34077 ft 415 kts 250°
2026-05-05 19:49 41.40713 105.68243 34085 ft 415 kts 250°
2026-05-05 19:50 41.38544 105.61132 34084 ft 415 kts 250°
2026-05-05 19:50 41.36344 105.54001 34094 ft 415 kts 250°
2026-05-05 19:51 41.34132 105.46900 34080 ft 416 kts 250°
2026-05-05 19:51 41.31914 105.39790 34088 ft 416 kts 250°
2026-05-05 19:52 41.29695 105.32684 34085 ft 416 kts 250°
2026-05-05 19:52 41.27471 105.25577 34092 ft 416 kts 250°
2026-05-05 19:53 41.25244 105.18480 34095 ft 416 kts 249°
2026-05-05 19:53 41.23009 105.11380 34099 ft 416 kts 249°
2026-05-05 19:54 41.20772 105.04289 34100 ft 417 kts 249°
2026-05-05 19:54 41.18539 104.97229 34101 ft 417 kts 249°
2026-05-05 19:55 41.16288 104.90130 34102 ft 417 kts 249°
2026-05-05 19:55 41.14033 104.83039 34103 ft 417 kts 249°
2026-05-05 19:56 41.11771 104.75942 34102 ft 418 kts 249°
2026-05-05 19:56 41.09503 104.68847 34106 ft 418 kts 249°
2026-05-05 19:57 41.07304 104.61715 34106 ft 418 kts 250°
2026-05-05 19:57 41.05149 104.54555 34107 ft 418 kts 250°
2026-05-05 19:58 41.02979 104.47397 34107 ft 418 kts 249°
2026-05-05 19:58 41.00854 104.40282 34105 ft 418 kts 252°
2026-05-05 19:59 40.99678 104.32754 34113 ft 419 kts 265°
2026-05-05 19:59 41.00103 104.25046 34113 ft 425 kts 279°
2026-05-05 20:00 41.01957 104.17547 34113 ft 431 kts 285°
2026-05-05 20:00 41.04128 104.10118 34114 ft 432 kts 286°
2026-05-05 20:01 41.06307 104.02704 34119 ft 432 kts 286°
2026-05-05 20:01 41.08454 103.95270 34119 ft 432 kts 285°
2026-05-05 20:02 41.10570 103.87862 34124 ft 432 kts 285°
2026-05-05 20:02 41.12694 103.80391 34120 ft 433 kts 285°
2026-05-05 20:03 41.14814 103.72918 34120 ft 433 kts 285°
2026-05-05 20:03 41.16933 103.65430 34122 ft 433 kts 285°
2026-05-05 20:04 41.19046 103.57937 34122 ft 434 kts 285°
2026-05-05 20:04 41.21159 103.50425 34122 ft 434 kts 285°
2026-05-05 20:05 41.23270 103.42901 34122 ft 434 kts 285°
2026-05-05 20:05 41.25365 103.35412 34120 ft 435 kts 285°
2026-05-05 20:06 41.27468 103.27871 34117 ft 435 kts 285°
2026-05-05 20:06 41.29573 103.20298 34122 ft 436 kts 285°
2026-05-05 20:07 41.31672 103.12724 34119 ft 437 kts 285°
2026-05-05 20:07 41.33756 103.05185 34118 ft 437 kts 285°
2026-05-05 20:08 41.35826 102.97676 34120 ft 438 kts 285°
2026-05-05 20:08 41.37996 102.90094 34226 ft 438 kts 286°
2026-05-05 20:08 41.39095 102.86330 34588 ft 434 kts 286°
2026-05-05 20:09 41.40181 102.82606 34999 ft 429 kts 285°
2026-05-05 20:09 41.41257 102.78903 35340 ft 426 kts 285°
2026-05-05 20:09 41.42316 102.75235 35620 ft 424 kts 285°
2026-05-05 20:09 41.43370 102.71565 35868 ft 423 kts 285°
2026-05-05 20:10 41.44421 102.67899 36072 ft 423 kts 285°
2026-05-05 20:10 41.46545 102.60494 36117 ft 429 kts 285°
2026-05-05 20:11 41.48664 102.53108 36119 ft 429 kts 285°
2026-05-05 20:11 41.50796 102.45663 36121 ft 428 kts 285°
2026-05-05 20:12 41.52913 102.38247 36123 ft 428 kts 285°
2026-05-05 20:12 41.55024 102.30826 36119 ft 427 kts 285°
2026-05-05 20:13 41.57125 102.23421 36123 ft 426 kts 285°
2026-05-05 20:13 41.59212 102.16043 36122 ft 426 kts 285°
2026-05-05 20:14 41.61300 102.08638 36128 ft 425 kts 285°
2026-05-05 20:14 41.63380 102.01243 36127 ft 425 kts 285°
2026-05-05 20:15 41.65454 101.93845 36126 ft 425 kts 285°
2026-05-05 20:15 41.67522 101.86448 36123 ft 424 kts 285°
2026-05-05 20:16 41.69587 101.79038 36122 ft 424 kts 285°
2026-05-05 20:16 41.71645 101.71637 36123 ft 424 kts 285°
2026-05-05 20:17 41.73687 101.64266 36121 ft 424 kts 285°
2026-05-05 20:17 41.75735 101.56854 36121 ft 424 kts 285°
2026-05-05 20:18 41.77779 101.49433 36127 ft 424 kts 285°
2026-05-05 20:18 41.79819 101.42008 36123 ft 425 kts 285°
2026-05-05 20:19 41.81859 101.34558 36128 ft 425 kts 284°
2026-05-05 20:19 41.83883 101.27113 36122 ft 424 kts 283°
2026-05-05 20:20 41.85114 101.19468 36126 ft 416 kts 271°
2026-05-05 20:20 41.85438 101.11761 36127 ft 416 kts 269°
2026-05-05 20:21 41.85612 101.04000 36128 ft 416 kts 269°
2026-05-05 20:21 41.85769 100.96235 36124 ft 417 kts 269°
2026-05-05 20:22 41.85938 100.88464 36118 ft 417 kts 269°
2026-05-05 20:22 41.86111 100.80681 36125 ft 417 kts 269°
2026-05-05 20:23 41.86281 100.72897 36118 ft 418 kts 269°
2026-05-05 20:23 41.86444 100.65138 36127 ft 418 kts 269°
2026-05-05 20:24 41.86603 100.57332 36118 ft 419 kts 268°
2026-05-05 20:24 41.86757 100.49522 36119 ft 419 kts 268°
2026-05-05 20:25 41.86905 100.41707 36123 ft 419 kts 268°
2026-05-05 20:25 41.87048 100.33867 36127 ft 420 kts 268°
2026-05-05 20:26 41.87185 100.26083 36125 ft 420 kts 268°
2026-05-05 20:26 41.87318 100.18248 36132 ft 420 kts 268°
2026-05-05 20:27 41.87445 100.10403 36133 ft 420 kts 268°
2026-05-05 20:27 41.87567 100.02542 36124 ft 421 kts 268°
2026-05-05 20:28 41.87665 99.96016 36127 ft 421 kts 268°
2026-05-05 20:28 41.87777 99.88162 36136 ft 421 kts 268°
2026-05-05 20:29 41.87884 99.80306 36137 ft 421 kts 268°
2026-05-05 20:29 41.87986 99.72446 36140 ft 421 kts 268°
2026-05-05 20:30 41.88082 99.64587 36134 ft 421 kts 268°
2026-05-05 20:30 41.88173 99.56723 36140 ft 422 kts 268°
2026-05-05 20:31 41.88258 99.48854 36146 ft 422 kts 268°
2026-05-05 20:31 41.88339 99.41012 36141 ft 422 kts 267°
2026-05-05 20:32 41.88414 99.33130 36149 ft 423 kts 267°
2026-05-05 20:32 41.88484 99.25235 36152 ft 423 kts 267°
2026-05-05 20:33 41.88548 99.17328 36147 ft 423 kts 267°
2026-05-05 20:33 41.88607 99.09425 36160 ft 424 kts 267°
2026-05-05 20:34 41.88661 99.01509 36154 ft 424 kts 267°
2026-05-05 20:34 41.88709 98.93627 36162 ft 425 kts 267°
2026-05-05 20:35 41.88752 98.85683 36167 ft 425 kts 267°
2026-05-05 20:35 41.88790 98.77742 36155 ft 426 kts 267°
2026-05-05 20:36 41.88822 98.69787 36161 ft 426 kts 267°
2026-05-05 20:36 41.88849 98.61834 36167 ft 427 kts 267°
2026-05-05 20:37 41.88870 98.53867 36162 ft 427 kts 267°
2026-05-05 20:37 41.88886 98.45882 36162 ft 428 kts 267°
2026-05-05 20:38 41.88896 98.37945 36171 ft 428 kts 267°
2026-05-05 20:38 41.88901 98.29949 36171 ft 428 kts 267°
2026-05-05 20:39 41.88900 98.21955 36173 ft 429 kts 267°
2026-05-05 20:39 41.88894 98.13931 36172 ft 429 kts 267°
2026-05-05 20:40 41.88882 98.05907 36178 ft 430 kts 267°
2026-05-05 20:40 41.88864 97.97888 36172 ft 430 kts 267°
2026-05-05 20:41 41.88841 97.89909 36185 ft 430 kts 267°
2026-05-05 20:41 41.88813 97.81882 36178 ft 430 kts 267°
2026-05-05 20:42 41.88778 97.73844 36187 ft 430 kts 267°
2026-05-05 20:42 41.88739 97.65804 36189 ft 431 kts 267°
2026-05-05 20:43 41.88693 97.57765 36191 ft 431 kts 267°
2026-05-05 20:43 41.88642 97.49721 36194 ft 431 kts 267°
2026-05-05 20:44 41.88585 97.41673 36190 ft 431 kts 267°
2026-05-05 20:44 41.88523 97.33620 36189 ft 431 kts 267°
2026-05-05 20:45 41.88419 97.21586 36207 ft 432 kts 267°
2026-05-05 20:45 41.88342 97.13520 36200 ft 432 kts 267°
2026-05-05 20:46 41.88259 97.05451 36199 ft 433 kts 267°
2026-05-05 20:46 41.88171 96.97361 36206 ft 434 kts 267°
2026-05-05 20:47 41.88077 96.89260 36203 ft 435 kts 267°
2026-05-05 20:47 41.87977 96.81144 36207 ft 436 kts 267°
2026-05-05 20:48 41.87871 96.72998 36212 ft 436 kts 267°
2026-05-05 20:48 41.87759 96.64842 36212 ft 437 kts 267°
2026-05-05 20:49 41.87641 96.56735 36213 ft 438 kts 267°
2026-05-05 20:49 41.87517 96.48510 36215 ft 439 kts 267°
2026-05-05 20:50 41.87388 96.40377 36216 ft 439 kts 267°
2026-05-05 20:50 41.87252 96.32161 36216 ft 440 kts 267°
2026-05-05 20:51 41.87110 96.23934 36218 ft 441 kts 267°
2026-05-05 20:51 41.87029 96.15762 36213 ft 441 kts 268°
2026-05-05 20:52 41.87007 96.07527 36215 ft 442 kts 268°
2026-05-05 20:52 41.86972 95.99282 36215 ft 442 kts 268°
2026-05-05 20:53 41.86918 95.91018 36211 ft 443 kts 268°
2026-05-05 20:53 41.86853 95.82754 36209 ft 443 kts 268°
2026-05-05 20:54 41.86782 95.74475 36205 ft 444 kts 268°
2026-05-05 20:54 41.86705 95.66200 36200 ft 444 kts 268°
2026-05-05 20:55 41.86623 95.57911 36206 ft 444 kts 268°
2026-05-05 20:55 41.86535 95.49607 36189 ft 445 kts 268°